Wallops Island, VA

3:57 AM EST on December 10, 2016 (GMT -0500)
Wallops Flight Facility

Weather History for KWAL - November, 2012

Change the Weather History Date:

Monday, November 12, 2012

  Actual Average Record
Temperature  
Mean Temperature 62 °F 51 °F  
Max Temperature 70 °F 60 °F 71 °F (2014)
Min Temperature 53 °F 42 °F 29 °F (2001)
Degree Days  
Heating Degree Days 3    
Month to date heating degree days 197  
Since 1 July heating degree days 365  
Cooling Degree Days 0    
Month to date cooling degree days 0  
Year to date cooling degree days 1616  
Growing Degree Days 11 (Base 50)    
Moisture  
Dew Point 54 °F    
Average Humidity 74    
Maximum Humidity 86    
Minimum Humidity 61    
Precipitation  
Precipitation 0.00 in 0.09 in 2.11 in (2004)
Month to date precipitation 0.37 1.15  
Year to date precipitation 44.99 35.69  
Sea Level Pressure  
Sea Level Pressure 30.34 in    
Wind  
Wind Speed 9 mph (South)    
Max Wind Speed 15 mph    
Max Gust Speed 21 mph    
Visibility 8 miles    
Events      
T = Trace of Precipitation, MM = Missing Value Source: NWS Daily Summary

Daily Weather History Graph

Daily Weather History Graph

Search for Another Location

Airport or City:

Trip Planner

Search our weather history database for the weather conditions in past years. The results will help you decide how hot, cold, wet, or windy it might be!

Date:

Astronomy

Nov. 12, 2012 Rise Set
Actual Time 6:39 AM EST 4:52 PM EST
Civil Twilight 6:11 AM EST 5:19 PM EST
Nautical Twilight 5:40 AM EST 5:51 PM EST
Astronomical Twilight 5:09 AM EST 6:22 PM EST
Moon 5:03 AM EST (11/12) 3:54 PM EST (11/12)
Length of Visible Light 11h 08m
Length of Day
10h 12m
Waning Crescent, 2% of the Moon is Illuminated
Nov 12
Waning Crescent
Nov 13
New
Nov 20
First Quarter
Nov 28
Full
Dec 6
Last Quarter

Hourly Weather History & Observations

Time (EST) Temp. Dew Point Humidity Pressure Visibility Wind Dir Wind Speed Gust Speed Precip Events Conditions
12:54 AM 54.0 °F 48.9 °F 83% 30.46 in 7.0 mi SSW 6.9 mph - N/A   Clear
1:54 AM 53.1 °F 48.0 °F 83% 30.46 in 8.0 mi SSW 5.8 mph - N/A   Clear
2:54 AM 55.0 °F 48.9 °F 80% 30.45 in 8.0 mi South 6.9 mph - N/A   Clear
3:54 AM 55.9 °F 50.0 °F 80% 30.44 in 6.0 mi SSW 6.9 mph - N/A   Haze
4:54 AM 57.0 °F 51.1 °F 81% 30.44 in 6.0 mi SSW 8.1 mph - N/A   Haze
5:54 AM 57.0 °F 52.0 °F 83% 30.44 in 6.0 mi South 8.1 mph - N/A   Haze
6:54 AM 55.9 °F 51.1 °F 84% 30.44 in 3.0 mi SSW 5.8 mph - N/A   Haze
7:54 AM 59.0 °F 54.0 °F 83% 30.44 in 7.0 mi South 8.1 mph - N/A   Clear
8:54 AM 63.0 °F 55.0 °F 75% 30.43 in 10.0 mi South 5.8 mph - N/A   Clear
9:54 AM 66.0 °F 55.0 °F 68% 30.43 in 10.0 mi South 9.2 mph - N/A   Clear
10:54 AM 66.9 °F 55.0 °F 66% 30.42 in 10.0 mi SSW 13.8 mph - N/A   Clear
11:54 AM 69.1 °F 55.0 °F 61% 30.39 in 10.0 mi SSW 10.4 mph - N/A   Clear
12:54 PM 69.1 °F 55.0 °F 61% 30.36 in 10.0 mi SSW 11.5 mph - N/A   Clear
1:54 PM 69.1 °F 55.0 °F 61% 30.35 in 10.0 mi South 12.7 mph - N/A   Clear
2:54 PM 66.0 °F 54.0 °F 65% 30.32 in 10.0 mi South 10.4 mph 19.6 mph N/A   Clear
3:54 PM 63.0 °F 55.0 °F 75% 30.30 in 10.0 mi South 9.2 mph - N/A   Clear
4:54 PM 61.0 °F 55.0 °F 81% 30.29 in 10.0 mi South 6.9 mph - N/A   Mostly Cloudy
5:13 PM 61.0 °F 55.0 °F 81% 30.30 in 10.0 mi South 9.2 mph - N/A   Mostly Cloudy
5:54 PM 61.0 °F 55.9 °F 83% 30.29 in 2.5 mi South 8.1 mph - N/A   Haze
6:00 PM 61.0 °F 55.9 °F 83% 30.29 in 1.8 mi South 9.2 mph - N/A   Haze
6:19 PM 60.1 °F 55.0 °F 83% 30.28 in 0.8 mi South 12.7 mph - N/A   Haze
6:34 PM 59.0 °F 55.0 °F 87% 30.27 in 1.2 mi South 11.5 mph - N/A   Overcast
6:38 PM 59.0 °F 55.0 °F 87% 30.27 in 2.5 mi South 10.4 mph - N/A   Overcast
6:45 PM 60.1 °F 55.0 °F 83% 30.26 in 8.0 mi South 13.8 mph 19.6 mph N/A   Mostly Cloudy
6:54 PM 60.1 °F 55.0 °F 83% 30.26 in 10.0 mi South 10.4 mph 18.4 mph N/A   Scattered Clouds
7:54 PM 60.1 °F 55.0 °F 83% 30.26 in 10.0 mi SW 8.1 mph - N/A   Clear
8:54 PM 59.0 °F 54.0 °F 83% 30.26 in 10.0 mi South 10.4 mph - N/A   Clear
9:54 PM 60.1 °F 55.0 °F 83% 30.25 in 10.0 mi SSW 10.4 mph - N/A   Clear
10:54 PM 61.0 °F 55.0 °F 81% 30.22 in 10.0 mi SSW 13.8 mph - N/A   Overcast
11:54 PM 61.0 °F 55.0 °F 81% 30.22 in 10.0 mi SSW 12.7 mph - N/A   Unknown